Погода в Гаврилове

Россия / Санкт-Петербург и Ленинградская область     60°35′26″N   29°02′24″E
темп.,
°C
ветер,
м/с
пор.,
м/с
влажн.,
%
обл.,
%
осадки,
мм/ч
давл.,
гПа
погр.,
м
12 мая, ср
ср1200:00+14ююв311770 0.0 1022237
03:00+12ююв39830 0.0 1022174
06:00+13ююв38795 0.0 1022171
09:00+18ю47530 0.0 1021410
12:00+22ю47430 0.0 10211098
15:00+24ю57410 0.0 10211487
18:00+24ю46424 0.0 10201814
21:00+18юв24680 0.0 101963
13 мая, чт
чт1300:00+15юв25750 0.0 101979
03:00+14вюв22760 0.0 101836
06:00+14в28780 0.0 1017174
09:00+19юв59585 0.0 1016864
12:00+20юв585214 0.0 10151587
15:00+21ююв573717 0.0 10141920
18:00+20ююв46350 0.0 10131721
21:00+15юв115523 0.0 101211
14 мая, пт
пт1400:00+12ссв227360 0.0 101130
03:00+13св2777100 0.0 1009175
06:00+12зюз1398100 4.7 1007172
09:00+11ю3597100 12.8 1007290
12:00+10ю41096100 0.4 1009591
15:00+12ю2788100 0.6 1009448
18:00+14ю3881100 0.2 1008831
21:00+12юв269069 0.3 1008148
15 мая, сб
сб1500:00+11ююв399494 0.1 1007217
03:00+10ю279643 0.1 1007179
06:00+10ю13949 0.0 100785
09:00+15ююз1277100 0.0 1007387
12:00+17з116697 0.0 1007708
15:00+19зсз32575 0.0 10061036
18:00+18сз23605 0.0 1006501
21:00+13зсз22835 0.0 100625
16 мая, вс
вс1600:00+12св229318 0.0 100626
03:00+11св249599 0.0 100674
06:00+11ссв259246 0.0 1007161
09:00+16ссв3466100 0.0 1008523
12:00+18с2355100 0.1 10081262
15:00+17сз236091 0.3 1010560
18:00+15зюз346988 0.0 1011283
21:00+11з2487100 0.0 1012109